Location: *
(58.7167°N, 26.1833°E)
Time: 18:28:30
(UTC+00:00)

APEX - Pass Details

Date: 25 August 2019
Orbit: 333 x 1126 km, 69.9° (Epoch: 13 October)

Event Time Altitude Azimuth Distance (km) Brightness Sun altitude
Rises 19:06:04 0° 317° (NW) 3,604 9.7 -10.6°
Reaches altitude 10° 19:08:53 10° 320° (NW) 2,534 8.2 -10.9°
Maximum altitude 19:14:40 69° 44° (NE) 786 4.1 -11.5°
Enters shadow 19:18:14 17° 126° (SE) 1,631 5.1 -11.8°
